[[{"header":{"parameterUnit":"m.s-1","parameterCategory":1,"la1":30.2991,"la2":30.254,"lo1":-89.0895,"lo2":-89.0444,"dy":0.0017,"dx":0.0017,"nx":28,"ny":28,"refTime":"2023-07-25T09:00:00:Z","depth":0,"parameterNumber":2,"parameterNumberName":"U-component_of_WINDS"},"data":[0,0,0,0,0,0,0,0,0,0,0,0,0,0,0,0,0,0,0,0,0,0,0,0,0,0,0,0,0,0,0,0,0,0,0,0,0,0,0,0,0,0,0,0,0,0,0,0,0,0,0,0,0,0,0,0,0,0,-0.1997,-0.1997,0,-0.1974,-0.1974,-0.1974,-0.1992,-0.1993,-0.1994,-0.1995,-0.1968,-0.1967,-0.1965,0,0,0,0,0,0,0,0,0,0,0,0,0,-0.2053,-0.2052,-0.1997,-0.1997,-0.1996,-0.1974,-0.1974,-0.1974,-0.1992,-0.1993,-0.1994,-0.1995,-0.1969,-0.1967,-0.1965,0,0,0,0,0,0,0,0,0,0,0,0,0,-0.2029,-0.2052,-0.1997,-0.2003,-0.2003,-0.1974,-0.1974,-0.1974,-0.1992,-0.1993,-0.1994,-0.1995,-0.1969,-0.1967,-0.1965,-0.1928,0,0,-0.1958,-0.1958,0,0,0,0,0,0,0,0,-0.2031,-0.2027,-0.2002,-0.2002,-0.2003,-0.1987,-0.1984,-0.1958,-0.1992,-0.1996,-0.1995,-0.1996,-0.1973,-0.1971,-0.1964,-0.1927,-0.1926,-0.1958,-0.1957,-0.1956,-0.1955,0,0,0,0,0,0,0,-0.2032,-0.2028,-0.1988,-0.2002,-0.2002,-0.2006,-0.2004,-0.1979,-0.1978,-0.1996,-0.1997,-0.1994,-0.1974,-0.1966,-0.1964,-0.1925,-0.1958,-0.1956,-0.1955,-0.1954,-0.1856,-0.1855,0,0,0,0,0,0,-0.2034,-0.203,-0.1989,-0.1987,-0.202,-0.2004,-0.2002,-0.1991,-0.1979,-0.1978,-0.1993,-0.1995,-0.1969,-0.1966,-0.1963,-0.1918,-0.1956,-0.1954,-0.1953,-0.1858,-0.1856,-0.1855,0,0,0,0,0,0,-0.2035,-0.203,-0.1989,-0.2009,-0.2004,-0.2002,-0.199,-0.199,-0.1982,-0.1977,-0.1976,-0.1986,-0.197,-0.1966,-0.1937,-0.1918,-0.1953,-0.1951,-0.1859,-0.1857,-0.1855,-0.1829,0,0,0,0,0,0,-0.2037,-0.203,-0.2017,-0.2008,-0.2003,-0.1965,-0.1989,-0.1989,-0.1979,-0.1981,-0.197,-0.1969,-0.1971,-0.194,-0.1935,-0.1915,-0.1949,-0.1861,-0.1858,-0.1856,-0.1832,-0.1827,-0.1822,0,0,0,0,0,-0.2039,-0.201,-0.2016,-0.2011,-0.1986,-0.1963,-0.196,-0.1964,-0.1977,-0.1963,-0.196,-0.1969,-0.1921,-0.1937,-0.1931,-0.1911,-0.1862,-0.1859,-0.1856,-0.1834,-0.1828,-0.1822,0,0,0,0,0,0,-0.2014,-0.2009,-0.2016,-0.1983,-0.1974,-0.1967,-0.1949,-0.1957,-0.1942,-0.1945,-0.1949,-0.1946,-0.1916,-0.191,-0.1928,-0.1874,-0.1894,-0.1889,-0.1879,-0.1873,-0.1868,-0.1869,-0.1948,0,0,0,0,0,-0.2006,-0.1989,-0.1984,-0.1956,-0.1951,-0.1951,-0.1941,-0.1945,-0.1935,-0.193,-0.1925,-0.1914,-0.1896,-0.1884,-0.1868,-0.1832,-0.1829,-0.1815,-0.181,-0.1806,-0.1802,-0.1782,-0.1775,-0.1845,-0.1845,-0.1845,0,0,-0.1987,-0.1982,-0.197,-0.1951,-0.1944,-0.1926,-0.1947,-0.1927,-0.1913,-0.1927,-0.1899,-0.1895,-0.1883,-0.185,-0.1835,-0.1845,-0.1782,-0.1802,-0.1799,-0.1797,-0.1778,-0.1772,-0.1766,-0.1843,-0.1843,-0.1844,0,0,-0.1943,-0.1938,-0.1913,-0.1906,-0.1896,-0.1896,-0.1891,-0.1882,-0.188,-0.1853,-0.1863,-0.1846,-0.1816,-0.1807,-0.1798,-0.1752,-0.1759,-0.1746,-0.1721,-0.1701,-0.1696,-0.1691,-0.1673,-0.1667,-0.1742,-0.1742,-0.1742,0,-0.192,-0.1894,-0.19,-0.1879,-0.187,-0.1883,-0.1858,-0.1851,-0.1835,-0.1828,-0.184,-0.1802,-0.1795,-0.176,-0.1749,-0.1742,-0.1734,-0.1747,-0.1696,-0.1691,-0.1687,-0.167,-0.1664,-0.1741,-0.1741,-0.1741,-0.1741,0,-0.1866,-0.1847,-0.1829,-0.1815,-0.1804,-0.1781,-0.1783,-0.1771,-0.1776,-0.1775,-0.1746,-0.1739,-0.1721,-0.1713,-0.1717,-0.1678,-0.1684,-0.1696,-0.1715,-0.1678,-0.1663,-0.1657,-0.1738,-0.1739,-0.174,-0.174,0,0,-0.1804,-0.1795,-0.1788,-0.1782,-0.1772,-0.1757,-0.1735,-0.1719,-0.1708,-0.1697,-0.1678,-0.1652,-0.1663,-0.1653,-0.1656,-0.1639,-0.1602,-0.1653,-0.1653,-0.1643,-0.1558,-0.1549,-0.1541,-0.1608,-0.1607,-0.1606,-0.1559,0,-0.1759,-0.1721,-0.1727,-0.169,-0.1672,-0.1686,-0.1666,-0.1657,-0.1656,-0.164,-0.1638,-0.162,-0.1636,-0.163,-0.1614,-0.161,-0.1585,-0.1614,-0.1588,-0.1587,-0.159,-0.1533,-0.1523,-0.1479,-0.1553,-0.1552,-0.1551,0,-0.1701,-0.1689,-0.1651,-0.1644,-0.1637,-0.162,-0.1605,-0.159,-0.1581,-0.1581,-0.157,-0.1577,-0.1553,-0.1574,-0.1542,-0.1561,-0.1551,-0.1548,-0.1546,-0.1543,-0.1566,-0.1527,-0.1465,-0.1458,-0.1542,-0.1542,-0.1543,0,-0.1659,-0.1634,-0.1608,-0.1602,-0.1594,-0.1581,-0.1576,-0.1568,-0.1558,-0.1545,-0.1538,-0.1523,-0.1514,-0.1501,-0.1502,-0.1518,-0.1469,-0.149,-0.1467,-0.1467,-0.1455,-0.1455,-0.1389,-0.1451,-0.1451,-0.1451,-0.1451,0,-0.1607,-0.1583,-0.1589,-0.1572,-0.1545,-0.1552,-0.1524,-0.1522,-0.1514,-0.1497,-0.1508,-0.1491,-0.1495,-0.1478,-0.1479,-0.1451,-0.1447,-0.1446,-0.1446,-0.1444,-0.1444,-0.1437,-0.1439,-0.1449,-0.1449,-0.145,-0.145,0,-0.1555,-0.1558,-0.153,-0.1525,-0.1523,-0.1503,-0.1499,-0.1483,-0.1483,-0.1461,-0.1456,-0.1455,-0.1436,-0.1437,-0.1415,-0.1416,-0.1381,-0.1386,-0.1384,-0.1385,-0.1361,-0.1363,-0.1287,-0.1277,-0.1346,-0.1345,-0.1345,0,-0.1521,-0.1503,-0.1497,-0.1486,-0.1482,-0.1465,-0.1455,-0.1461,-0.145,-0.1438,-0.1423,-0.1405,-0.1391,-0.1359,-0.1356,-0.1339,-0.1343,-0.1317,-0.134,-0.1338,-0.1341,-0.1341,-0.1339,-0.1312,-0.1311,-0.1311,-0.131,0,-0.146,-0.1463,-0.1449,-0.1435,-0.1424,-0.1413,-0.1403,-0.1394,-0.1399,-0.1386,-0.1367,-0.1356,-0.1334,-0.1316,-0.13,-0.1294,-0.1302,-0.1303,-0.1297,-0.1294,-0.1294,-0.1292,-0.1371,-0.1305,-0.1305,-0.1306,-0.1306,-0.1306,-0.1415,-0.14,-0.1393,-0.1377,-0.1371,-0.1362,-0.1346,-0.1345,-0.133,-0.1313,-0.1318,-0.1296,-0.1287,-0.1266,-0.126,-0.1242,-0.1251,-0.1242,-0.1239,-0.1237,-0.1233,-0.1298,-0.1239,-0.1239,-0.124,-0.124,-0.124,0,-0.1354,-0.1351,-0.1336,-0.1323,-0.131,-0.1321,-0.1311,-0.1299,-0.1281,-0.1272,-0.1258,-0.1236,-0.1219,-0.1215,-0.1198,-0.1184,-0.1188,-0.118,-0.118,-0.1178,-0.1227,-0.1234,-0.1177,-0.1177,-0.1177,-0.1177,-0.1177,-0.1177,-0.1321,-0.1295,-0.1297,-0.1268,-0.1264,-0.1244,-0.1237,-0.1229,-0.1222,-0.1197,-0.1183,-0.1182,-0.1174,-0.1157,-0.1141,-0.114,-0.1133,-0.1123,-0.1123,-0.1169,-0.1175,-0.1181,-0.1187,-0.1122,-0.1122,-0.1076,-0.1076,-0.1075]},{"header":{"parameterUnit":"m.s-1","parameterCategory":1,"la1":30.2991,"la2":30.254,"lo1":-89.0895,"lo2":-89.0444,"dy":0.0017,"dx":0.0017,"nx":28,"ny":28,"refTime":"2023-07-25T09:00:00:Z","depth":0,"parameterNumber":3,"parameterNumberName":"V-component_of_WINDS"},"data":[0,0,0,0,0,0,0,0,0,0,0,0,0,0,0,0,0,0,0,0,0,0,0,0,0,0,0,0,0,0,0,0,0,0,0,0,0,0,0,0,0,0,0,0,0,0,0,0,0,0,0,0,0,0,0,0,0,0,-1.0274,-1.0275,0,-1.043,-1.0432,-1.0433,-1.0513,-1.0513,-1.0513,-1.0513,-1.0674,-1.0678,-1.0682,0,0,0,0,0,0,0,0,0,0,0,0,0,-1.0045,-1.0049,-1.0273,-1.0275,-1.0277,-1.043,-1.0432,-1.0434,-1.0513,-1.0513,-1.0513,-1.0513,-1.0672,-1.0677,-1.0683,0,0,0,0,0,0,0,0,0,0,0,0,0,-1.0167,-1.005,-1.0273,-1.0335,-1.0342,-1.0429,-1.0432,-1.0434,-1.0513,-1.0513,-1.0513,-1.0513,-1.0671,-1.0677,-1.0683,-1.0721,0,0,-1.0703,-1.0705,0,0,0,0,0,0,0,0,-1.016,-1.0175,-1.0324,-1.0331,-1.0339,-1.0452,-1.041,-1.053,-1.0513,-1.0448,-1.0513,-1.0513,-1.06,-1.0612,-1.0641,-1.0728,-1.0735,-1.0703,-1.0707,-1.071,-1.0712,0,0,0,0,0,0,0,-1.0151,-1.0169,-1.0335,-1.0326,-1.0335,-1.0355,-1.0373,-1.0433,-1.0522,-1.0454,-1.046,-1.0477,-1.0604,-1.0635,-1.0646,-1.0738,-1.0703,-1.0709,-1.0713,-1.0715,-1.0864,-1.0864,0,0,0,0,0,0,-1.0133,-1.0161,-1.033,-1.034,-1.0248,-1.0359,-1.0379,-1.0416,-1.0521,-1.0537,-1.0477,-1.048,-1.0624,-1.0638,-1.0652,-1.0703,-1.071,-1.0716,-1.0719,-1.0864,-1.0864,-1.0864,0,0,0,0,0,0,-1.0127,-1.0147,-1.0324,-1.0252,-1.0277,-1.0363,-1.0404,-1.0419,-1.045,-1.0539,-1.0555,-1.0492,-1.0625,-1.0643,-1.0703,-1.071,-1.0719,-1.0724,-1.0864,-1.0864,-1.0864,-1.0806,0,0,0,0,0,0,-1.012,-1.0145,-1.0159,-1.0252,-1.028,-1.0372,-1.0404,-1.0422,-1.046,-1.0466,-1.0557,-1.0573,-1.0626,-1.0693,-1.0709,-1.0719,-1.0729,-1.0864,-1.0864,-1.0864,-1.0808,-1.0804,-1.0801,0,0,0,0,0,-1.0112,-1.0137,-1.016,-1.018,-1.03,-1.0373,-1.0389,-1.045,-1.046,-1.0476,-1.0534,-1.057,-1.0706,-1.0699,-1.0718,-1.0729,-1.0864,-1.0864,-1.0864,-1.0809,-1.0805,-1.0801,0,0,0,0,0,0,-1.0043,-1.015,-1.0177,-1.0232,-1.0293,-1.0386,-1.0408,-1.0443,-1.0502,-1.0505,-1.0578,-1.0598,-1.0652,-1.0697,-1.0686,-1.0771,-1.0789,-1.0793,-1.074,-1.0737,-1.0734,-1.0722,-1.0735,0,0,0,0,0,-1.0034,-1.0083,-1.0175,-1.0215,-1.0244,-1.032,-1.0354,-1.0396,-1.0462,-1.0488,-1.0549,-1.0612,-1.067,-1.0706,-1.0763,-1.0814,-1.0836,-1.0832,-1.0828,-1.0825,-1.0828,-1.0859,-1.0858,-1.0866,-1.0866,-1.0866,0,0,-1.0017,-1.0081,-1.0108,-1.0203,-1.0254,-1.0304,-1.0341,-1.0393,-1.0431,-1.0496,-1.0557,-1.0604,-1.0679,-1.0735,-1.0763,-1.0774,-1.0831,-1.0826,-1.0822,-1.0827,-1.0859,-1.0858,-1.0858,-1.0866,-1.0866,-1.0866,0,0,-1.001,-1.0064,-1.0103,-1.0154,-1.0232,-1.0283,-1.0292,-1.038,-1.0414,-1.0476,-1.0526,-1.0573,-1.067,-1.0721,-1.076,-1.0773,-1.0809,-1.079,-1.0773,-1.0802,-1.0802,-1.0801,-1.0807,-1.0807,-1.0792,-1.0792,-1.0792,0,-0.9979,-1.0055,-1.0119,-1.0168,-1.0208,-1.0269,-1.031,-1.0356,-1.0449,-1.0476,-1.0487,-1.061,-1.0665,-1.0734,-1.0737,-1.0766,-1.078,-1.078,-1.0796,-1.0797,-1.0798,-1.0803,-1.0805,-1.0789,-1.079,-1.079,-1.079,0,-1.0013,-1.0065,-1.0088,-1.0176,-1.0219,-1.0263,-1.0334,-1.037,-1.0408,-1.0457,-1.052,-1.0588,-1.0661,-1.068,-1.0718,-1.0755,-1.0759,-1.0782,-1.0801,-1.0793,-1.08,-1.0803,-1.0785,-1.0786,-1.0787,-1.0788,0,0,-0.9967,-1.009,-1.0097,-1.0138,-1.0228,-1.027,-1.0317,-1.0388,-1.0418,-1.0479,-1.0521,-1.0602,-1.0624,-1.0668,-1.0712,-1.0737,-1.0744,-1.0758,-1.0761,-1.0753,-1.079,-1.0772,-1.0774,-1.0768,-1.0769,-1.0769,-1.0784,0,-0.9974,-1.0061,-1.012,-1.0184,-1.0234,-1.0292,-1.0334,-1.0394,-1.0442,-1.0491,-1.0544,-1.06,-1.0625,-1.0652,-1.068,-1.0737,-1.0753,-1.0737,-1.0808,-1.081,-1.0788,-1.0777,-1.0759,-1.0769,-1.0787,-1.0787,-1.0788,0,-0.9993,-1.0053,-1.0122,-1.0207,-1.023,-1.0266,-1.0336,-1.0382,-1.0452,-1.0485,-1.0534,-1.0579,-1.0632,-1.0646,-1.072,-1.0708,-1.0741,-1.0773,-1.0775,-1.0785,-1.0798,-1.0786,-1.0774,-1.0775,-1.0792,-1.0792,-1.0792,0,-0.9953,-1.0051,-1.0105,-1.0138,-1.0239,-1.0263,-1.0306,-1.0376,-1.0414,-1.0475,-1.0502,-1.0568,-1.0604,-1.0655,-1.0717,-1.0721,-1.0785,-1.0804,-1.0815,-1.0813,-1.0826,-1.0824,-1.0818,-1.0846,-1.0846,-1.0846,-1.0846,0,-0.9954,-0.9994,-1.0089,-1.0122,-1.0169,-1.0236,-1.0281,-1.0329,-1.039,-1.0435,-1.0489,-1.053,-1.0609,-1.0659,-1.0708,-1.0762,-1.0778,-1.0807,-1.0819,-1.0802,-1.0798,-1.0825,-1.0826,-1.0846,-1.0846,-1.0846,-1.0846,0,-0.9918,-0.9982,-1.0045,-1.0135,-1.0159,-1.0189,-1.0267,-1.0302,-1.0353,-1.0408,-1.0425,-1.0504,-1.0566,-1.0633,-1.0717,-1.075,-1.0802,-1.082,-1.0779,-1.0786,-1.0793,-1.0791,-1.0804,-1.0809,-1.0832,-1.0832,-1.0831,0,-0.9914,-0.9947,-1.004,-1.0073,-1.0115,-1.0168,-1.0208,-1.0276,-1.0315,-1.0397,-1.0422,-1.0488,-1.0544,-1.064,-1.0706,-1.0771,-1.0791,-1.0791,-1.0801,-1.0783,-1.0792,-1.0789,-1.0793,-1.0788,-1.0787,-1.0787,-1.0786,0,-0.9902,-0.9932,-0.9987,-1.0053,-1.0099,-1.0155,-1.0213,-1.0237,-1.0316,-1.0358,-1.0422,-1.0465,-1.0552,-1.0617,-1.069,-1.0735,-1.0774,-1.0783,-1.0789,-1.0772,-1.0746,-1.0761,-1.077,-1.0782,-1.0783,-1.0783,-1.0783,-1.0783,-0.9882,-0.9913,-0.9984,-1.0044,-1.0094,-1.0147,-1.0184,-1.0239,-1.0294,-1.0369,-1.0406,-1.047,-1.0539,-1.0641,-1.0686,-1.0737,-1.0749,-1.0757,-1.076,-1.0761,-1.0756,-1.0738,-1.0751,-1.0751,-1.0751,-1.0751,-1.0751,0,-0.9872,-0.9921,-0.9975,-1.0054,-1.0101,-1.0133,-1.0199,-1.0236,-1.0291,-1.0353,-1.0407,-1.0481,-1.0544,-1.0615,-1.0683,-1.071,-1.073,-1.0726,-1.0725,-1.0735,-1.0742,-1.073,-1.0709,-1.0709,-1.0709,-1.0709,-1.0709,-1.0709,-0.9873,-0.9928,-0.9966,-1.0047,-1.0096,-1.0158,-1.0193,-1.0242,-1.0292,-1.0371,-1.0424,-1.047,-1.0535,-1.0608,-1.0668,-1.0688,-1.071,-1.0701,-1.0725,-1.0731,-1.0734,-1.0737,-1.0727,-1.0705,-1.0705,-1.0714,-1.0714,-1.0714]}]]